Home   Weather   Ireland   Limerick   Past weeks
Flag for Ireland

Past Weather in Limerick, Ireland — Yesterday and Last 2 Weeks

Currently: 59 °F. Broken clouds. (Weather station: Shannon Airport, Ireland). See more current weather

Past Weather in Limerick — Graph

°F

Limerick Temperature Yesterday

Maximum temperature yesterday: 70 °F (at 3:00 pm)
Minimum temperature yesterday: 48 °F (at 1:00 am)
Average temperature yesterday: 59 °F

High & Low Weather Summary for the Past Weeks

 TemperatureHumidityPressure
High70 °F (Jun 13, 3:30 pm)100% (Jun 2, 7:00 am)30.33 "Hg (Jun 2, 7:00 am)
Low46 °F (Jun 6, 5:30 am)49% (Jun 6, 3:00 pm)29.80 "Hg (Jun 2, 3:30 pm)
Average59 °F78%30.08 "Hg
* Reported Jun 1 8:00 pm — Jun 16 8:00 pm, Limerick. Weather by CustomWeather, © 2021

Note: Actual official high and low records may vary slightly from our data, if they occured in-between our weather recording intervals... More about our weather records

Limerick Weather History for the Previous 24 Hours

Scroll right to see more
 ConditionsComfort  
Time TempWeatherWind HumidityBarometerVisibility
8:00 pm
Wed, Jun 16
59 °FBroken clouds.12 mph68%29.83 "HgN/A
7:30 pm61 °FScattered clouds.15 mph63%29.80 "HgN/A
7:00 pm59 °FPartly sunny.14 mph68%29.80 "HgN/A
6:30 pm59 °FPartly sunny.14 mph68%29.80 "HgN/A
6:00 pm61 °FBroken clouds.15 mph63%29.80 "HgN/A
5:30 pm61 °FBroken clouds.13 mph63%29.80 "HgN/A
5:00 pm61 °FBroken clouds.13 mph68%29.80 "HgN/A
4:30 pm59 °FBroken clouds.12 mph68%29.80 "HgN/A
4:00 pm61 °FLight rain. Broken clouds.14 mph59%29.80 "HgN/A
3:30 pm63 °FBroken clouds.13 mph52%29.80 "HgN/A
3:00 pm61 °FBroken clouds.15 mph59%29.80 "HgN/A
2:30 pm61 °FBroken clouds.15 mph63%29.80 "HgN/A
2:00 pm61 °FPartly sunny.16 mph63%29.80 "HgN/A
1:30 pm59 °FPartly sunny.10 mph63%29.83 "HgN/A
1:00 pm59 °FPartly sunny.13 mph63%29.83 "HgN/A
12:30 pm59 °FPartly sunny.9 mph72%29.83 "HgN/A
12:00 pm57 °FPartly sunny.10 mph77%29.83 "HgN/A
11:30 am57 °FPartly sunny.16 mph77%29.83 "HgN/A
11:00 am59 °FBroken clouds.10 mph68%29.83 "HgN/A
10:30 am57 °FPartly sunny.14 mph72%29.83 "HgN/A
10:00 am59 °FPartly sunny.13 mph68%29.83 "HgN/A
9:30 am57 °FBroken clouds.14 mph77%29.83 "HgN/A
9:00 am57 °FBroken clouds.16 mph77%29.83 "HgN/A
8:30 am55 °FBroken clouds.13 mph82%29.83 "HgN/A
8:00 am55 °FBroken clouds.12 mph82%29.83 "HgN/A
7:30 am55 °FPartly sunny.9 mph77%29.83 "HgN/A
7:00 am55 °FBroken clouds.8 mph82%29.83 "HgN/A
6:30 am54 °FPartly sunny.12 mph88%29.83 "HgN/A
6:00 am54 °FPartly sunny.10 mph88%29.83 "HgN/A
5:30 am54 °FPartly sunny.10 mph88%29.83 "HgN/A
5:00 am54 °FPassing clouds.8 mph88%29.83 "HgN/A
4:30 am54 °FPassing clouds.9 mph94%29.83 "HgN/A
4:00 am54 °FPartly cloudy.7 mph88%29.83 "HgN/A
3:30 am54 °FPartly cloudy.9 mph94%29.86 "HgN/A
3:00 am54 °FLight rain. Passing clouds.10 mph94%29.86 "HgN/A
2:30 am54 °FPartly cloudy.10 mph94%29.86 "HgN/A
2:00 am54 °FLight rain. Passing clouds.15 mph94%29.86 "HgN/A
1:30 am54 °FPartly cloudy.12 mph94%29.89 "Hg5 mi
1:00 am54 °FLight rain. Partly cloudy.14 mph94%29.89 "Hg4 mi
12:30 am54 °FLight rain. Partly cloudy.14 mph94%29.89 "Hg5 mi
12:00 am54 °FLight rain. Partly cloudy.13 mph94%29.89 "Hg5 mi
11:30 pm
Tue, Jun 15
57 °FLight rain. Passing clouds.15 mph94%29.89 "Hg4 mi
11:00 pm57 °FPassing clouds.7 mph100%29.89 "Hg2 mi
10:30 pm59 °FLight rain. Partly cloudy.10 mph94%29.89 "Hg3 mi
10:00 pm59 °FDrizzle. Broken clouds.10 mph100%29.89 "Hg1 mi
9:30 pm61 °FDrizzle. Partly sunny.9 mph100%29.89 "Hg3 mi
9:00 pm61 °FDrizzle. Partly sunny.13 mph94%29.89 "Hg4 mi
Weather by CustomWeather, © 2021

See weather overview